Time,TemperatureF,DewpointF,PressureIn,WindDirection,WindDirectionDegrees,WindSpeedMPH,WindSpeedGustMPH,Humidity,HourlyPrecipIn,Conditions,Clouds,dailyrainin,SoftwareType,DateUTC
2013-09-20 00:02:00,67.8,58.1,17.72,SW,224,0.0,0.0,71,0.00,,SKC,0.00,VWS V14.00,2013-09-20 04:02:00,
2013-09-20 00:08:00,67.6,58.3,17.72,SW,224,0.0,0.0,72,0.00,,SKC,0.00,VWS V14.00,2013-09-20 04:08:00,
2013-09-20 00:13:00,67.6,58.3,17.72,SW,224,0.0,0.0,72,0.00,,SKC,0.00,VWS V14.00,2013-09-20 04:13:00,
2013-09-20 00:18:00,67.6,58.3,17.72,SW,224,0.0,0.0,72,0.00,,SKC,0.00,VWS V14.00,2013-09-20 04:18:00,
2013-09-20 00:23:00,67.5,58.1,17.72,SW,224,0.0,0.0,72,0.00,,SKC,0.00,VWS V14.00,2013-09-20 04:23:00,
2013-09-20 00:28:00,67.5,58.1,17.72,SW,224,0.0,0.0,72,0.00,,SKC,0.00,VWS V14.00,2013-09-20 04:28:00,
2013-09-20 00:33:00,67.3,58.0,17.72,SW,224,0.0,0.0,72,0.00,,SKC,0.00,VWS V14.00,2013-09-20 04:33:00,
2013-09-20 00:38:00,67.3,58.0,17.72,SW,224,0.0,0.0,72,0.00,,SKC,0.00,VWS V14.00,2013-09-20 04:38:00,
2013-09-20 00:40:00,67.3,58.0,17.72,SW,224,0.0,0.0,72,0.00,,SKC,0.00,VWS V14.00,2013-09-20 04:40:00,
2013-09-20 00:48:00,67.1,57.8,17.72,SW,224,0.0,0.0,72,0.00,,SKC,0.00,VWS V14.00,2013-09-20 04:48:00,
2013-09-20 00:53:00,67.1,58.2,17.72,SW,224,0.0,0.0,73,0.00,,SKC,0.00,VWS V14.00,2013-09-20 04:53:00,
2013-09-20 00:58:00,67.1,58.2,17.72,SW,224,0.0,0.0,73,0.00,,SKC,0.00,VWS V14.00,2013-09-20 04:58:00,
2013-09-20 01:03:00,67.1,58.2,17.72,SW,224,0.0,0.0,73,0.00,,SKC,0.00,VWS V14.00,2013-09-20 05:03:00,
2013-09-20 01:08:00,66.9,58.0,17.72,SW,224,0.0,0.0,73,0.00,,SKC,0.00,VWS V14.00,2013-09-20 05:08:00,
2013-09-20 01:13:00,66.9,58.0,17.72,SW,224,0.0,0.0,73,0.00,,SKC,0.00,VWS V14.00,2013-09-20 05:13:00,
2013-09-20 01:18:00,66.9,58.0,17.72,SW,224,0.0,0.0,73,0.00,,SKC,0.00,VWS V14.00,2013-09-20 05:18:00,
2013-09-20 01:23:00,66.9,58.0,17.72,SW,224,0.0,0.0,73,0.00,,SKC,0.00,VWS V14.00,2013-09-20 05:23:00,
2013-09-20 01:28:00,66.7,57.8,17.72,SW,224,0.0,0.0,73,0.00,,SKC,0.00,VWS V14.00,2013-09-20 05:28:00,
2013-09-20 01:33:00,66.7,58.2,17.72,SW,224,0.0,0.0,74,0.00,,SKC,0.00,VWS V14.00,2013-09-20 05:33:00,
2013-09-20 01:38:00,66.6,58.0,17.72,SW,224,0.0,0.0,74,0.00,,SKC,0.00,VWS V14.00,2013-09-20 05:38:00,
2013-09-20 01:43:00,66.6,58.0,17.72,SW,224,0.0,0.0,74,0.00,,SKC,0.00,VWS V14.00,2013-09-20 05:43:00,
2013-09-20 01:48:00,66.6,58.0,17.72,SW,224,0.0,0.0,74,0.00,,SKC,0.00,VWS V14.00,2013-09-20 05:48:00,
2013-09-20 01:53:00,66.4,57.8,17.72,SW,224,0.0,0.0,74,0.00,,SKC,0.00,VWS V14.00,2013-09-20 05:53:00,
2013-09-20 01:58:00,66.4,57.8,17.72,SW,224,0.0,0.0,74,0.00,,SKC,0.00,VWS V14.00,2013-09-20 05:58:00,
2013-09-20 02:03:00,66.4,57.8,17.72,SW,224,0.0,0.0,74,0.00,,SKC,0.00,VWS V14.00,2013-09-20 06:03:00,
2013-09-20 02:08:00,66.2,57.7,17.72,SW,224,0.0,0.0,74,0.00,,SKC,0.00,VWS V14.00,2013-09-20 06:08:00,
2013-09-20 02:13:00,66.2,58.0,17.72,SW,224,0.0,0.0,75,0.00,,SKC,0.00,VWS V14.00,2013-09-20 06:13:00,
2013-09-20 02:18:00,66.0,57.9,17.72,SW,224,0.0,0.0,75,0.00,,SKC,0.00,VWS V14.00,2013-09-20 06:18:00,
2013-09-20 02:23:00,66.0,57.9,17.72,SW,224,0.0,0.0,75,0.00,,SKC,0.00,VWS V14.00,2013-09-20 06:23:00,
2013-09-20 02:28:00,66.0,57.9,17.72,SW,224,0.0,0.0,75,0.00,,SKC,0.00,VWS V14.00,2013-09-20 06:28:00,
2013-09-20 02:33:00,65.8,57.7,17.72,SW,224,0.0,0.0,75,0.00,,SKC,0.00,VWS V14.00,2013-09-20 06:33:00,
2013-09-20 02:38:00,65.8,57.7,17.72,SW,224,0.0,0.0,75,0.00,,SKC,0.00,VWS V14.00,2013-09-20 06:38:00,
2013-09-20 02:43:00,65.8,57.7,17.72,SW,224,0.0,0.0,75,0.00,,SKC,0.00,VWS V14.00,2013-09-20 06:43:00,
2013-09-20 02:48:00,65.7,57.9,17.72,SW,224,0.0,0.0,76,0.00,,SKC,0.00,VWS V14.00,2013-09-20 06:48:00,
2013-09-20 02:53:00,65.7,57.9,17.72,SW,224,0.0,0.0,76,0.00,,SKC,0.00,VWS V14.00,2013-09-20 06:53:00,
2013-09-20 02:58:00,65.8,58.1,17.72,SW,224,0.0,0.0,76,0.00,,SKC,0.00,VWS V14.00,2013-09-20 06:58:00,
2013-09-20 03:03:00,65.8,58.1,17.72,SW,224,0.0,0.0,76,0.00,,SKC,0.00,VWS V14.00,2013-09-20 07:03:00,
2013-09-20 03:08:00,65.7,57.9,17.72,SW,224,0.0,0.0,76,0.00,,SKC,0.00,VWS V14.00,2013-09-20 07:08:00,
2013-09-20 03:13:00,65.7,57.9,17.72,SW,224,0.0,0.0,76,0.00,,SKC,0.00,VWS V14.00,2013-09-20 07:13:00,
2013-09-20 03:18:00,65.7,57.9,17.72,SW,224,0.0,0.0,76,0.00,,SKC,0.00,VWS V14.00,2013-09-20 07:18:00,
2013-09-20 03:23:00,65.5,57.7,17.72,SW,224,0.0,0.0,76,0.00,,SKC,0.00,VWS V14.00,2013-09-20 07:23:00,
2013-09-20 03:28:00,65.5,57.7,17.72,SW,224,0.0,0.0,76,0.00,,SKC,0.00,VWS V14.00,2013-09-20 07:28:00,
2013-09-20 03:33:00,65.3,57.5,17.72,SW,224,0.0,0.0,76,0.00,,SKC,0.00,VWS V14.00,2013-09-20 07:33:00,
2013-09-20 03:38:00,65.3,57.5,17.72,SW,224,0.0,0.0,76,0.00,,SKC,0.00,VWS V14.00,2013-09-20 07:38:00,
2013-09-20 03:43:00,65.1,57.7,17.72,SW,224,0.0,0.0,77,0.00,,SKC,0.00,VWS V14.00,2013-09-20 07:43:00,
2013-09-20 03:48:00,65.1,57.4,17.72,SW,224,0.0,0.0,76,0.00,,SKC,0.00,VWS V14.00,2013-09-20 07:48:00,
2013-09-20 03:53:00,65.1,57.7,17.72,SW,224,0.0,0.0,77,0.00,,SKC,0.00,VWS V14.00,2013-09-20 07:53:00,
2013-09-20 03:58:00,65.1,57.7,17.72,SW,224,0.0,0.0,77,0.00,,SKC,0.00,VWS V14.00,2013-09-20 07:58:00,
2013-09-20 04:03:00,65.1,57.7,17.72,SW,224,0.0,0.0,77,0.00,,SKC,0.00,VWS V14.00,2013-09-20 08:03:00,
2013-09-20 04:08:00,64.9,57.6,17.72,SW,224,0.0,0.0,77,0.00,,SKC,0.00,VWS V14.00,2013-09-20 08:08:00,
2013-09-20 04:13:00,64.8,57.4,17.72,SW,224,0.0,0.0,77,0.00,,SKC,0.00,VWS V14.00,2013-09-20 08:13:00,
2013-09-20 04:18:00,64.8,57.4,17.72,SW,224,0.0,0.0,77,0.00,,SKC,0.00,VWS V14.00,2013-09-20 08:18:00,
2013-09-20 04:23:00,64.8,57.4,17.72,SW,224,0.0,0.0,77,0.00,,SKC,0.00,VWS V14.00,2013-09-20 08:23:00,
2013-09-20 04:28:00,64.6,57.2,17.72,SW,224,0.0,0.0,77,0.00,,SKC,0.00,VWS V14.00,2013-09-20 08:28:00,
2013-09-20 04:33:00,64.6,57.2,17.72,SW,224,0.0,0.0,77,0.00,,SKC,0.00,VWS V14.00,2013-09-20 08:33:00,
2013-09-20 04:38:00,64.4,57.0,17.72,SW,224,0.0,0.0,77,0.00,,SKC,0.00,VWS V14.00,2013-09-20 08:38:00,
2013-09-20 04:43:00,64.4,57.0,17.72,SW,224,0.0,0.0,77,0.00,,SKC,0.00,VWS V14.00,2013-09-20 08:43:00,
2013-09-20 04:48:00,64.4,57.0,17.72,SW,224,0.0,0.0,77,0.00,,SKC,0.00,VWS V14.00,2013-09-20 08:48:00,
2013-09-20 04:53:00,64.2,57.2,17.72,SW,224,0.0,0.0,78,0.00,,SKC,0.00,VWS V14.00,2013-09-20 08:53:00,
2013-09-20 04:58:00,64.2,57.2,17.72,SW,224,0.0,0.0,78,0.00,,SKC,0.00,VWS V14.00,2013-09-20 08:58:00,
2013-09-20 05:03:00,64.2,57.2,17.72,SW,224,0.0,0.0,78,0.00,,SKC,0.00,VWS V14.00,2013-09-20 09:03:00,
2013-09-20 05:08:00,64.2,57.2,17.72,SW,224,0.0,0.0,78,0.00,,SKC,0.00,VWS V14.00,2013-09-20 09:08:00,
2013-09-20 05:13:00,64.2,57.2,17.72,SW,224,0.0,0.0,78,0.00,,SKC,0.00,VWS V14.00,2013-09-20 09:13:00,
2013-09-20 05:18:00,64.2,57.2,17.72,SW,224,0.0,0.0,78,0.00,,SKC,0.00,VWS V14.00,2013-09-20 09:18:00,
2013-09-20 05:23:00,64.0,57.0,17.72,SW,224,0.0,0.0,78,0.00,,SKC,0.00,VWS V14.00,2013-09-20 09:23:00,
2013-09-20 05:28:00,64.0,57.0,17.72,SW,224,0.0,0.0,78,0.00,,SKC,0.00,VWS V14.00,2013-09-20 09:28:00,
2013-09-20 05:33:00,64.0,57.0,17.72,SW,224,0.0,0.0,78,0.00,,SKC,0.00,VWS V14.00,2013-09-20 09:33:00,
2013-09-20 05:38:00,64.0,57.0,17.72,SW,224,0.0,0.0,78,0.00,,SKC,0.00,VWS V14.00,2013-09-20 09:38:00,
2013-09-20 05:43:00,64.0,57.4,17.72,SW,224,0.0,0.0,79,0.00,,SKC,0.00,VWS V14.00,2013-09-20 09:43:00,
2013-09-20 05:48:00,64.0,57.0,17.72,SW,224,0.0,0.0,78,0.00,,SKC,0.00,VWS V14.00,2013-09-20 09:48:00,
2013-09-20 05:54:00,64.0,57.0,17.72,SW,224,0.0,0.0,78,0.00,,SKC,0.00,VWS V14.00,2013-09-20 09:54:00,
2013-09-20 05:59:00,63.9,56.9,17.72,SW,224,0.0,0.0,78,0.00,,SKC,0.00,VWS V14.00,2013-09-20 09:59:00,
2013-09-20 06:04:00,63.9,57.2,17.72,SW,224,0.0,0.0,79,0.00,,SKC,0.00,VWS V14.00,2013-09-20 10:04:00,
2013-09-20 06:09:00,63.7,57.0,17.72,SW,224,0.0,0.0,79,0.00,,SKC,0.00,VWS V14.00,2013-09-20 10:09:00,
2013-09-20 06:14:00,63.7,57.0,17.72,SW,224,0.0,0.0,79,0.00,,SKC,0.00,VWS V14.00,2013-09-20 10:14:00,
2013-09-20 06:19:00,63.5,56.9,17.72,SW,224,0.0,0.0,79,0.00,,SKC,0.00,VWS V14.00,2013-09-20 10:19:00,
2013-09-20 06:24:00,63.5,56.9,17.72,SW,224,0.0,0.0,79,0.00,,SKC,0.00,VWS V14.00,2013-09-20 10:24:00,
2013-09-20 06:29:00,63.5,56.9,17.72,SW,224,0.0,0.0,79,0.00,,SKC,0.00,VWS V14.00,2013-09-20 10:29:00,
2013-09-20 06:34:00,63.3,56.7,17.72,SW,224,0.0,0.0,79,0.00,,SKC,0.00,VWS V14.00,2013-09-20 10:34:00,
2013-09-20 06:39:00,63.3,56.7,17.72,SW,224,0.0,0.0,79,0.00,,SKC,0.00,VWS V14.00,2013-09-20 10:39:00,
2013-09-20 06:44:00,63.3,56.7,17.72,SW,224,0.0,0.0,79,0.00,,SKC,0.00,VWS V14.00,2013-09-20 10:44:00,
2013-09-20 06:49:00,63.3,56.7,17.72,SW,224,0.0,0.0,79,0.00,,SKC,0.00,VWS V14.00,2013-09-20 10:49:00,
2013-09-20 06:54:00,63.1,56.5,17.72,SW,224,0.0,0.0,79,0.00,,SKC,0.00,VWS V14.00,2013-09-20 10:54:00,
2013-09-20 06:59:00,63.1,56.5,17.72,SW,224,0.0,0.0,79,0.00,,SKC,0.00,VWS V14.00,2013-09-20 10:59:00,
2013-09-20 07:04:00,63.0,56.3,17.72,SW,224,0.0,0.0,79,0.00,,SKC,0.00,VWS V14.00,2013-09-20 11:04:00,
2013-09-20 07:09:00,63.0,56.3,17.72,SW,224,0.0,0.0,79,0.00,,SKC,0.00,VWS V14.00,2013-09-20 11:09:00,
2013-09-20 07:14:00,63.0,56.3,17.72,SW,224,0.0,0.0,79,0.00,,SKC,0.00,VWS V14.00,2013-09-20 11:14:00,
2013-09-20 07:19:00,63.0,56.3,17.72,SW,224,0.0,0.0,79,0.00,,SKC,0.00,VWS V14.00,2013-09-20 11:19:00,
2013-09-20 07:24:00,62.8,56.2,17.72,SW,224,0.0,0.0,79,0.00,,SKC,0.00,VWS V14.00,2013-09-20 11:24:00,
2013-09-20 07:29:00,62.8,56.2,17.72,SW,224,0.0,0.0,79,0.00,,SKC,0.00,VWS V14.00,2013-09-20 11:29:00,
2013-09-20 07:34:00,63.0,56.3,17.72,SW,224,0.0,0.0,79,0.00,,SKC,0.00,VWS V14.00,2013-09-20 11:34:00,
2013-09-20 07:39:00,62.8,56.2,17.72,SW,224,0.0,0.0,79,0.00,,SKC,0.00,VWS V14.00,2013-09-20 11:39:00,
2013-09-20 07:44:00,62.8,56.2,17.72,SW,224,0.0,0.0,79,0.00,,SKC,0.00,VWS V14.00,2013-09-20 11:44:00,
2013-09-20 07:49:00,62.8,56.2,17.72,SW,224,0.0,0.0,79,0.00,,SKC,0.00,VWS V14.00,2013-09-20 11:49:00,
2013-09-20 07:54:00,63.0,56.7,17.72,SW,224,0.0,0.0,80,0.00,,SKC,0.00,VWS V14.00,2013-09-20 11:54:00,
2013-09-20 07:59:00,63.0,56.7,17.72,SW,224,0.0,0.0,80,0.00,,SKC,0.00,VWS V14.00,2013-09-20 11:59:00,
2013-09-20 08:04:00,63.0,56.7,17.72,SW,224,0.0,0.0,80,0.00,,SKC,0.00,VWS V14.00,2013-09-20 12:04:00,
2013-09-20 08:09:00,63.1,56.9,17.72,SW,224,0.0,0.0,80,0.00,,SKC,0.00,VWS V14.00,2013-09-20 12:09:00,
2013-09-20 08:14:00,63.1,56.9,17.72,SW,224,0.0,0.0,80,0.00,,SKC,0.00,VWS V14.00,2013-09-20 12:14:00,
2013-09-20 08:19:00,63.3,57.0,17.72,SW,224,0.0,0.0,80,0.00,,SKC,0.00,VWS V14.00,2013-09-20 12:19:00,
2013-09-20 08:24:00,63.5,57.2,17.72,SW,224,0.0,0.0,80,0.00,,SKC,0.00,VWS V14.00,2013-09-20 12:24:00,
2013-09-20 08:29:00,63.9,57.6,17.72,SW,224,0.0,0.0,80,0.00,,SKC,0.00,VWS V14.00,2013-09-20 12:29:00,
2013-09-20 08:34:00,64.0,58.1,17.72,SW,224,0.0,0.0,81,0.00,,SKC,0.00,VWS V14.00,2013-09-20 12:34:00,
2013-09-20 08:39:00,64.4,58.1,17.72,SW,224,0.0,0.0,80,0.00,,SKC,0.00,VWS V14.00,2013-09-20 12:39:00,
2013-09-20 08:44:00,64.8,58.5,17.72,SW,224,0.0,0.0,80,0.00,,SKC,0.00,VWS V14.00,2013-09-20 12:44:00,
2013-09-20 08:49:00,64.9,59.0,17.72,SW,224,0.0,0.0,81,0.00,,SKC,0.00,VWS V14.00,2013-09-20 12:49:00,
2013-09-20 08:54:00,65.3,59.3,17.72,SW,224,0.0,0.0,81,0.00,,SKC,0.00,VWS V14.00,2013-09-20 12:54:00,
2013-09-20 08:59:00,65.5,59.5,17.72,SW,224,0.0,0.0,81,0.00,,SKC,0.00,VWS V14.00,2013-09-20 12:59:00,
2013-09-20 09:04:00,66.0,60.0,17.72,SW,224,0.0,0.0,81,0.00,,SKC,0.00,VWS V14.00,2013-09-20 13:04:00,
2013-09-20 09:09:00,66.2,60.2,17.72,SW,224,0.0,0.0,81,0.00,,SKC,0.00,VWS V14.00,2013-09-20 13:09:00,
2013-09-20 09:14:00,66.6,60.6,17.72,SW,224,0.0,0.0,81,0.00,,SKC,0.00,VWS V14.00,2013-09-20 13:14:00,
2013-09-20 09:19:00,66.9,60.9,17.72,SW,224,0.0,0.0,81,0.00,,SKC,0.00,VWS V14.00,2013-09-20 13:19:00,
2013-09-20 09:24:00,67.3,61.3,17.72,SW,224,0.0,0.0,81,0.00,,SKC,0.00,VWS V14.00,2013-09-20 13:24:00,
2013-09-20 09:29:00,67.6,61.6,17.72,SW,224,0.0,0.0,81,0.00,,SKC,0.00,VWS V14.00,2013-09-20 13:29:00,
2013-09-20 09:34:00,68.0,62.0,17.72,SW,224,0.0,0.0,81,0.00,,SKC,0.00,VWS V14.00,2013-09-20 13:34:00,
2013-09-20 09:39:00,68.4,62.3,17.72,SW,224,0.0,0.0,81,0.00,,SKC,0.00,VWS V14.00,2013-09-20 13:39:00,
2013-09-20 09:44:00,68.5,62.5,17.72,SW,224,0.0,0.0,81,0.00,,SKC,0.00,VWS V14.00,2013-09-20 13:44:00,
2013-09-20 09:49:00,68.9,62.8,17.72,SW,224,0.0,0.0,81,0.00,,SKC,0.00,VWS V14.00,2013-09-20 13:49:00,
2013-09-20 09:54:00,69.3,63.2,17.72,SW,224,0.0,0.0,81,0.00,,SKC,0.00,VWS V14.00,2013-09-20 13:54:00,
2013-09-20 09:59:00,69.4,63.4,17.72,SW,224,0.0,0.0,81,0.00,,SKC,0.00,VWS V14.00,2013-09-20 13:59:00,
2013-09-20 10:04:00,69.8,63.4,17.72,SE,142,0.0,0.0,80,0.00,,SKC,0.00,VWS V14.00,2013-09-20 14:04:00,
2013-09-20 10:09:00,70.3,63.9,17.72,SSE,161,0.0,0.0,80,0.00,,SKC,0.00,VWS V14.00,2013-09-20 14:09:00,
2013-09-20 10:14:00,70.7,64.2,17.72,SSE,161,0.0,0.0,80,0.00,,SKC,0.00,VWS V14.00,2013-09-20 14:14:00,
2013-09-20 10:19:00,71.1,64.6,17.72,SSE,161,0.0,0.0,80,0.00,,SKC,0.00,VWS V14.00,2013-09-20 14:19:00,
2013-09-20 10:24:00,71.4,64.9,17.72,SW,230,0.0,0.0,80,0.00,,SKC,0.00,VWS V14.00,2013-09-20 14:24:00,
2013-09-20 10:29:00,71.8,64.9,17.72,South,186,4.8,4.8,79,0.00,,SKC,0.00,VWS V14.00,2013-09-20 14:29:00,
2013-09-20 10:34:00,72.1,65.3,17.72,SSE,156,0.0,4.0,79,0.00,,SKC,0.00,VWS V14.00,2013-09-20 14:34:00,
2013-09-20 10:39:00,72.5,65.6,17.72,SSE,157,0.0,4.0,79,0.00,,SKC,0.00,VWS V14.00,2013-09-20 14:39:00,
2013-09-20 10:44:00,73.0,65.8,17.72,SSE,156,0.0,0.0,78,0.00,,SKC,0.00,VWS V14.00,2013-09-20 14:44:00,
2013-09-20 10:49:00,73.4,65.8,17.72,NW,315,0.0,4.0,77,0.00,,SKC,0.00,VWS V14.00,2013-09-20 14:49:00,
2013-09-20 10:54:00,73.6,65.9,17.72,West,261,4.3,4.3,77,0.00,,SKC,0.00,VWS V14.00,2013-09-20 14:54:00,
2013-09-20 10:59:00,73.9,65.9,17.72,SW,234,0.0,3.6,76,0.00,,SKC,0.00,VWS V14.00,2013-09-20 14:59:00,
2013-09-20 11:04:00,74.1,65.7,17.72,East,87,0.0,5.8,75,0.00,,SKC,0.00,VWS V14.00,2013-09-20 15:04:00,
2013-09-20 11:09:00,74.7,65.8,17.72,SSE,149,0.0,5.8,74,0.00,,SKC,0.00,VWS V14.00,2013-09-20 15:09:00,
2013-09-20 11:14:00,75.0,66.2,17.72,ESE,108,0.0,4.0,74,0.00,,SKC,0.00,VWS V14.00,2013-09-20 15:14:00,
2013-09-20 11:19:00,75.4,66.1,17.72,SE,138,3.8,6.3,73,0.00,,SKC,0.00,VWS V14.00,2013-09-20 15:19:00,
2013-09-20 11:24:00,75.9,66.7,17.72,North,8,0.0,5.4,73,0.00,,SKC,0.00,VWS V14.00,2013-09-20 15:24:00,
2013-09-20 11:29:00,76.3,66.6,17.72,WNW,296,0.0,5.8,72,0.00,,SKC,0.00,VWS V14.00,2013-09-20 15:29:00,
2013-09-20 11:34:00,76.5,66.4,17.72,WNW,292,0.0,3.6,71,0.00,,SKC,0.00,VWS V14.00,2013-09-20 15:34:00,
2013-09-20 11:39:00,76.6,66.1,17.72,SW,216,0.0,3.6,70,0.00,,SKC,0.00,VWS V14.00,2013-09-20 15:39:00,
2013-09-20 11:44:00,76.8,66.3,17.72,SW,224,0.0,2.7,70,0.00,,SKC,0.00,VWS V14.00,2013-09-20 15:44:00,
2013-09-20 11:49:00,77.2,66.2,17.72,East,79,0.0,4.9,69,0.00,,SKC,0.00,VWS V14.00,2013-09-20 15:49:00,
2013-09-20 12:00:00,77.9,66.5,17.72,West,281,0.0,3.1,68,0.00,,SKC,0.00,VWS V14.00,2013-09-20 16:00:00,
2013-09-20 12:05:00,78.3,66.4,17.72,North,353,0.0,3.1,67,0.00,,SKC,0.00,VWS V14.00,2013-09-20 16:05:00,
2013-09-20 12:10:00,78.6,66.8,17.72,SSE,159,0.0,4.0,67,0.00,,SKC,0.00,VWS V14.00,2013-09-20 16:10:00,
2013-09-20 12:15:00,79.0,66.2,17.72,South,181,4.8,5.4,65,0.00,,SKC,0.00,VWS V14.00,2013-09-20 16:15:00,
2013-09-20 12:20:00,79.3,66.1,17.72,SW,227,7.5,7.5,64,0.00,,SKC,0.00,VWS V14.00,2013-09-20 16:20:00,
2013-09-20 12:25:00,80.1,66.3,17.72,WSW,251,0.0,6.3,63,0.00,,SKC,0.00,VWS V14.00,2013-09-20 16:25:00,
2013-09-20 12:30:00,80.4,66.7,17.72,SSE,162,0.0,7.6,63,0.00,,SKC,0.00,VWS V14.00,2013-09-20 16:30:00,
2013-09-20 12:35:00,80.4,66.7,17.72,SE,129,0.0,0.0,63,0.00,,SKC,0.00,VWS V14.00,2013-09-20 16:35:00,
2013-09-20 12:40:00,80.6,66.4,17.72,NNE,26,0.0,0.0,62,0.00,,SKC,0.00,VWS V14.00,2013-09-20 16:40:00,
2013-09-20 12:45:00,81.0,66.3,17.72,West,278,0.0,4.9,61,0.00,,SKC,0.00,VWS V14.00,2013-09-20 16:45:00,
2013-09-20 12:50:00,81.5,66.8,17.72,SW,232,0.0,4.9,61,0.00,,SKC,0.00,VWS V14.00,2013-09-20 16:50:00,
2013-09-20 12:55:00,81.9,66.6,17.72,South,172,0.0,5.4,60,0.00,,SKC,0.00,VWS V14.00,2013-09-20 16:55:00,
2013-09-20 13:00:00,82.4,66.2,17.72,NE,35,3.2,7.2,58,0.00,,SKC,0.00,VWS V14.00,2013-09-20 17:00:00,
2013-09-20 13:05:00,82.9,66.2,17.72,WSW,247,0.0,6.3,57,0.00,,SKC,0.00,VWS V14.00,2013-09-20 17:05:00,
2013-09-20 13:10:00,83.3,67.0,17.72,SW,217,0.0,6.3,58,0.00,,SKC,0.00,VWS V14.00,2013-09-20 17:10:00,
2013-09-20 13:15:00,82.9,65.7,17.72,ENE,74,0.0,4.0,56,0.00,,SKC,0.00,VWS V14.00,2013-09-20 17:15:00,
2013-09-20 13:20:00,82.9,65.1,17.72,ESE,111,4.8,4.8,55,0.00,,SKC,0.00,VWS V14.00,2013-09-20 17:20:00,
2013-09-20 13:25:00,82.4,63.6,17.72,SE,141,2.7,5.8,53,0.00,,SKC,0.00,VWS V14.00,2013-09-20 17:25:00,
2013-09-20 13:30:00,82.8,63.9,17.72,SSE,155,2.7,5.8,53,0.00,,SKC,0.00,VWS V14.00,2013-09-20 17:30:00,
2013-09-20 13:35:00,83.7,64.7,17.72,NNW,336,0.0,5.8,53,0.00,,SKC,0.00,VWS V14.00,2013-09-20 17:35:00,
2013-09-20 13:40:00,83.8,64.3,17.72,SSE,154,0.0,0.0,52,0.00,,SKC,0.00,VWS V14.00,2013-09-20 17:40:00,
2013-09-20 13:45:00,84.0,64.0,17.72,ESE,122,0.0,4.9,51,0.00,,SKC,0.00,VWS V14.00,2013-09-20 17:45:00,
2013-09-20 13:50:00,84.4,63.7,17.72,South,173,0.0,0.0,50,0.00,,SKC,0.00,VWS V14.00,2013-09-20 17:50:00,
2013-09-20 13:55:00,84.0,62.8,17.72,SSE,159,6.4,6.4,49,0.00,,SKC,0.00,VWS V14.00,2013-09-20 17:55:00,
2013-09-20 14:00:00,83.8,62.7,17.72,WSW,238,0.0,5.8,49,0.00,,SKC,0.00,VWS V14.00,2013-09-20 18:00:00,
2013-09-20 14:05:00,84.2,63.0,17.72,South,186,4.8,4.9,49,0.00,,SKC,0.00,VWS V14.00,2013-09-20 18:05:00,
2013-09-20 14:10:00,84.7,62.9,17.72,SSW,197,7.0,7.0,48,0.00,,SKC,0.00,VWS V14.00,2013-09-20 18:10:00,
2013-09-20 14:15:00,85.1,62.6,17.72,SSW,196,0.0,5.8,47,0.00,,SKC,0.00,VWS V14.00,2013-09-20 18:15:00,
2013-09-20 14:20:00,84.9,62.5,17.72,SE,145,5.9,5.9,47,0.00,,SKC,0.00,VWS V14.00,2013-09-20 18:20:00,
2013-09-20 14:25:00,84.9,62.5,17.72,West,276,0.0,4.9,47,0.00,,SKC,0.00,VWS V14.00,2013-09-20 18:25:00,
2013-09-20 14:30:00,85.6,63.1,17.72,SE,141,3.8,3.8,47,0.00,,SKC,0.00,VWS V14.00,2013-09-20 18:30:00,
2013-09-20 14:35:00,86.2,62.4,17.72,West,265,5.9,7.6,45,0.00,,SKC,0.00,VWS V14.00,2013-09-20 18:35:00,
2013-09-20 14:40:00,86.2,61.7,17.72,WNW,302,0.0,0.0,44,0.00,,SKC,0.00,VWS V14.00,2013-09-20 18:40:00,
2013-09-20 14:45:00,86.2,62.4,17.72,SW,233,0.0,2.2,45,0.00,,SKC,0.00,VWS V14.00,2013-09-20 18:45:00,
2013-09-20 14:50:00,86.2,61.1,17.72,WNW,294,0.0,0.0,43,0.00,,SKC,0.00,VWS V14.00,2013-09-20 18:50:00,
2013-09-20 14:55:00,85.8,60.8,17.72,SSW,195,0.0,0.0,43,0.00,,SKC,0.00,VWS V14.00,2013-09-20 18:55:00,
2013-09-20 15:00:00,85.6,60.6,17.72,WSW,243,0.0,0.0,43,0.00,,SKC,0.00,VWS V14.00,2013-09-20 19:00:00,
2013-09-20 15:05:00,85.6,60.6,17.72,NW,316,0.0,2.7,43,0.00,,SKC,0.00,VWS V14.00,2013-09-20 19:05:00,
2013-09-20 15:10:00,85.6,59.9,17.72,SW,218,0.0,0.0,42,0.00,,SKC,0.00,VWS V14.00,2013-09-20 19:10:00,
2013-09-20 15:15:00,86.2,60.4,17.72,SE,133,0.0,3.1,42,0.00,,SKC,0.00,VWS V14.00,2013-09-20 19:15:00,
2013-09-20 15:20:00,86.5,60.7,17.72,SSW,200,0.0,0.0,42,0.00,,SKC,0.00,VWS V14.00,2013-09-20 19:20:00,
2013-09-20 15:25:00,86.9,60.4,17.72,SSW,194,3.2,4.0,41,0.00,,SKC,0.00,VWS V14.00,2013-09-20 19:25:00,
2013-09-20 15:30:00,86.5,59.4,17.72,ESE,121,0.0,0.0,40,0.00,,SKC,0.00,VWS V14.00,2013-09-20 19:30:00,
2013-09-20 15:35:00,86.5,60.1,17.72,ESE,121,4.3,4.3,41,0.00,,SKC,0.00,VWS V14.00,2013-09-20 19:35:00,
2013-09-20 15:40:00,86.4,59.2,17.72,SSW,200,0.0,0.0,40,0.00,,SKC,0.00,VWS V14.00,2013-09-20 19:40:00,
2013-09-20 15:45:00,86.2,59.0,17.72,South,190,0.0,3.6,40,0.00,,SKC,0.00,VWS V14.00,2013-09-20 19:45:00,
2013-09-20 15:50:00,85.8,58.7,17.72,SW,233,0.0,0.0,40,0.00,,SKC,0.00,VWS V14.00,2013-09-20 19:50:00,
2013-09-20 15:55:00,85.6,59.3,17.72,East,92,0.0,0.0,41,0.00,,SKC,0.00,VWS V14.00,2013-09-20 19:55:00,
2013-09-20 16:00:00,85.6,58.6,17.72,SW,227,0.0,0.0,40,0.00,,SKC,0.00,VWS V14.00,2013-09-20 20:00:00,
2013-09-20 16:05:00,85.5,58.4,17.72,SSE,158,0.0,4.0,40,0.00,,SKC,0.00,VWS V14.00,2013-09-20 20:05:00,
2013-09-20 16:10:00,85.5,58.4,17.72,West,267,0.0,0.0,40,0.00,,SKC,0.00,VWS V14.00,2013-09-20 20:10:00,
2013-09-20 16:15:00,85.3,58.2,17.72,NNW,337,0.0,0.0,40,0.00,,SKC,0.00,VWS V14.00,2013-09-20 20:15:00,
2013-09-20 16:20:00,85.1,58.1,17.72,SSW,194,5.9,5.9,40,0.00,,SKC,0.00,VWS V14.00,2013-09-20 20:20:00,
2013-09-20 16:25:00,84.9,57.9,17.72,SSW,200,0.0,5.4,40,0.00,,SKC,0.00,VWS V14.00,2013-09-20 20:25:00,
2013-09-20 16:30:00,84.7,57.8,17.72,WNW,289,0.0,0.0,40,0.00,,SKC,0.00,VWS V14.00,2013-09-20 20:30:00,
2013-09-20 16:35:00,84.4,57.5,17.72,SW,233,0.0,0.0,40,0.00,,SKC,0.00,VWS V14.00,2013-09-20 20:35:00,
2013-09-20 16:40:00,84.2,57.3,17.72,SW,233,0.0,0.0,40,0.00,,SKC,0.00,VWS V14.00,2013-09-20 20:40:00,
2013-09-20 16:46:00,84.0,57.8,17.72,SSW,192,0.0,2.7,41,0.00,,SKC,0.00,VWS V14.00,2013-09-20 20:46:00,
2013-09-20 16:51:00,83.8,57.7,17.72,West,265,3.2,3.2,41,0.00,,SKC,0.00,VWS V14.00,2013-09-20 20:51:00,
2013-09-20 16:56:00,83.7,57.5,17.72,WSW,242,0.0,3.6,41,0.00,,SKC,0.00,VWS V14.00,2013-09-20 20:56:00,
2013-09-20 17:01:00,83.3,57.2,17.72,WSW,242,0.0,0.0,41,0.00,,SKC,0.00,VWS V14.00,2013-09-20 21:01:00,
2013-09-20 17:06:00,82.9,56.8,17.72,SSW,207,0.0,5.4,41,0.00,,SKC,0.00,VWS V14.00,2013-09-20 21:06:00,
2013-09-20 17:11:00,82.8,56.7,17.72,SE,127,0.0,0.0,41,0.00,,SKC,0.00,VWS V14.00,2013-09-20 21:11:00,
2013-09-20 17:16:00,82.4,57.0,17.72,SSE,154,0.0,0.0,42,0.00,,SKC,0.00,VWS V14.00,2013-09-20 21:16:00,
2013-09-20 17:21:00,82.2,56.9,17.72,SE,136,0.0,0.0,42,0.00,,SKC,0.00,VWS V14.00,2013-09-20 21:21:00,
2013-09-20 17:26:00,82.0,57.4,17.72,SW,216,0.0,2.7,43,0.00,,SKC,0.00,VWS V14.00,2013-09-20 21:26:00,
2013-09-20 17:31:00,82.0,57.4,17.72,SW,224,3.2,3.6,43,0.00,,SKC,0.00,VWS V14.00,2013-09-20 21:31:00,
2013-09-20 17:36:00,82.0,57.4,17.72,SSE,152,0.0,3.6,43,0.00,,SKC,0.00,VWS V14.00,2013-09-20 21:36:00,
2013-09-20 17:41:00,81.9,57.2,17.72,SW,234,0.0,0.0,43,0.00,,SKC,0.00,VWS V14.00,2013-09-20 21:41:00,
2013-09-20 17:46:00,81.7,57.0,17.72,SE,131,0.0,0.0,43,0.00,,SKC,0.00,VWS V14.00,2013-09-20 21:46:00,
2013-09-20 17:51:00,81.3,57.3,17.72,WSW,237,0.0,0.0,44,0.00,,SKC,0.00,VWS V14.00,2013-09-20 21:51:00,
2013-09-20 17:56:00,81.1,57.2,17.72,SSW,205,0.0,0.0,44,0.00,,SKC,0.00,VWS V14.00,2013-09-20 21:56:00,
2013-09-20 18:01:00,81.0,57.0,17.72,SSW,197,0.0,0.0,44,0.00,,SKC,0.00,VWS V14.00,2013-09-20 22:01:00,
2013-09-20 18:06:00,80.8,56.9,17.72,SSW,197,0.0,0.0,44,0.00,,SKC,0.00,VWS V14.00,2013-09-20 22:06:00,
2013-09-20 18:11:00,80.6,56.7,17.72,SSW,198,0.0,0.0,44,0.00,,SKC,0.00,VWS V14.00,2013-09-20 22:11:00,
2013-09-20 18:16:00,80.4,57.2,17.72,SSW,198,0.0,0.0,45,0.00,,SKC,0.00,VWS V14.00,2013-09-20 22:16:00,
2013-09-20 18:21:00,80.1,56.8,17.72,SSW,198,0.0,0.0,45,0.00,,SKC,0.00,VWS V14.00,2013-09-20 22:21:00,
2013-09-20 18:26:00,79.9,56.7,17.72,SSW,197,0.0,0.0,45,0.00,,SKC,0.00,VWS V14.00,2013-09-20 22:26:00,
2013-09-20 18:31:00,79.5,57.0,17.72,SSW,198,0.0,0.0,46,0.00,,SKC,0.00,VWS V14.00,2013-09-20 22:31:00,
2013-09-20 18:36:00,79.3,56.8,17.72,SSW,197,0.0,0.0,46,0.00,,SKC,0.00,VWS V14.00,2013-09-20 22:36:00,
2013-09-20 18:41:00,79.2,56.6,17.72,SSW,198,0.0,0.0,46,0.00,,SKC,0.00,VWS V14.00,2013-09-20 22:41:00,
2013-09-20 18:46:00,78.8,56.9,17.72,SSW,197,0.0,0.0,47,0.00,,SKC,0.00,VWS V14.00,2013-09-20 22:46:00,
2013-09-20 18:51:00,78.6,57.3,17.72,SSW,198,0.0,0.0,48,0.00,,SKC,0.00,VWS V14.00,2013-09-20 22:51:00,
2013-09-20 18:56:00,78.3,57.5,17.72,SSW,197,0.0,0.0,49,0.00,,SKC,0.00,VWS V14.00,2013-09-20 22:56:00,
2013-09-20 19:01:00,77.9,57.2,17.72,SSW,198,0.0,0.0,49,0.00,,SKC,0.00,VWS V14.00,2013-09-20 23:01:00,
2013-09-20 19:06:00,77.5,56.9,17.72,SSW,198,0.0,0.0,49,0.00,,SKC,0.00,VWS V14.00,2013-09-20 23:06:00,
2013-09-20 19:11:00,77.2,57.1,17.72,SSW,198,0.0,0.0,50,0.00,,SKC,0.00,VWS V14.00,2013-09-20 23:11:00,
2013-09-20 19:16:00,77.0,57.5,17.72,SSW,198,0.0,0.0,51,0.00,,SKC,0.00,VWS V14.00,2013-09-20 23:16:00,
2013-09-20 19:21:00,76.8,57.9,17.72,SSW,198,0.0,0.0,52,0.00,,SKC,0.00,VWS V14.00,2013-09-20 23:21:00,
2013-09-20 19:26:00,76.5,57.5,17.72,SSW,198,0.0,0.0,52,0.00,,SKC,0.00,VWS V14.00,2013-09-20 23:26:00,
2013-09-20 19:31:00,76.3,57.9,17.72,SSW,198,0.0,0.0,53,0.00,,SKC,0.00,VWS V14.00,2013-09-20 23:31:00,
2013-09-20 19:36:00,75.9,58.1,17.72,SSW,198,0.0,0.0,54,0.00,,SKC,0.00,VWS V14.00,2013-09-20 23:36:00,
2013-09-20 19:41:00,75.7,57.9,17.72,SSW,198,0.0,0.0,54,0.00,,SKC,0.00,VWS V14.00,2013-09-20 23:41:00,
2013-09-20 19:46:00,75.6,58.3,17.72,SSW,198,0.0,0.0,55,0.00,,SKC,0.00,VWS V14.00,2013-09-20 23:46:00,
2013-09-20 19:51:00,75.2,57.9,17.72,SSW,198,0.0,0.0,55,0.00,,SKC,0.00,VWS V14.00,2013-09-20 23:51:00,
2013-09-20 19:56:00,75.0,58.3,17.72,SSW,198,0.0,0.0,56,0.00,,SKC,0.00,VWS V14.00,2013-09-20 23:56:00,
2013-09-20 20:01:00,74.7,58.4,17.72,SSW,198,0.0,0.0,57,0.00,,SKC,0.00,VWS V14.00,2013-09-21 00:01:00,
2013-09-20 20:06:00,74.5,58.3,17.72,SSW,197,0.0,0.0,57,0.00,,SKC,0.00,VWS V14.00,2013-09-21 00:06:00,
2013-09-20 20:11:00,74.1,58.4,17.72,SSW,198,0.0,0.0,58,0.00,,SKC,0.00,VWS V14.00,2013-09-21 00:11:00,
2013-09-20 20:16:00,73.9,58.2,17.72,SSW,198,0.0,0.0,58,0.00,,SKC,0.00,VWS V14.00,2013-09-21 00:16:00,
2013-09-20 20:21:00,73.9,58.2,17.72,SSW,198,0.0,0.0,58,0.00,,SKC,0.00,VWS V14.00,2013-09-21 00:21:00,
2013-09-20 20:26:00,73.8,58.5,17.72,SSW,198,0.0,0.0,59,0.00,,SKC,0.00,VWS V14.00,2013-09-21 00:26:00,
2013-09-20 20:31:00,73.6,58.4,17.72,SSW,198,0.0,0.0,59,0.00,,SKC,0.00,VWS V14.00,2013-09-21 00:31:00,
2013-09-20 20:36:00,73.4,58.2,17.72,SSW,198,0.0,0.0,59,0.00,,SKC,0.00,VWS V14.00,2013-09-21 00:36:00,
2013-09-20 20:41:00,73.0,58.8,17.72,SSW,198,0.0,0.0,61,0.00,,SKC,0.00,VWS V14.00,2013-09-21 00:41:00,
2013-09-20 20:46:00,72.9,58.6,17.72,SSW,198,0.0,0.0,61,0.00,,SKC,0.00,VWS V14.00,2013-09-21 00:46:00,
2013-09-20 20:51:00,72.7,58.5,17.72,SSW,198,0.0,0.0,61,0.00,,SKC,0.00,VWS V14.00,2013-09-21 00:51:00,
2013-09-20 20:56:00,72.5,58.8,17.72,SSW,198,0.0,0.0,62,0.00,,SKC,0.00,VWS V14.00,2013-09-21 00:56:00,
2013-09-20 21:01:00,72.5,58.8,17.72,SSW,198,0.0,0.0,62,0.00,,SKC,0.00,VWS V14.00,2013-09-21 01:01:00,
2013-09-20 21:06:00,72.5,58.8,17.72,SSW,198,0.0,0.0,62,0.00,,SKC,0.00,VWS V14.00,2013-09-21 01:06:00,
2013-09-20 21:11:00,72.3,59.0,17.72,SSW,198,0.0,0.0,63,0.00,,SKC,0.00,VWS V14.00,2013-09-21 01:11:00,
2013-09-20 21:16:00,72.1,58.9,17.72,SSW,197,0.0,0.0,63,0.00,,SKC,0.00,VWS V14.00,2013-09-21 01:16:00,
2013-09-20 21:21:00,72.1,58.9,17.72,SSW,198,0.0,0.0,63,0.00,,SKC,0.00,VWS V14.00,2013-09-21 01:21:00,
2013-09-20 21:26:00,72.0,59.1,17.72,SSW,197,0.0,0.0,64,0.00,,SKC,0.00,VWS V14.00,2013-09-21 01:26:00,
2013-09-20 21:31:00,71.8,59.0,17.72,SSW,198,0.0,0.0,64,0.00,,SKC,0.00,VWS V14.00,2013-09-21 01:31:00,
2013-09-20 21:36:00,71.8,59.0,17.72,SSW,198,0.0,0.0,64,0.00,,SKC,0.00,VWS V14.00,2013-09-21 01:36:00,
2013-09-20 21:41:00,71.6,58.8,17.72,SSW,197,0.0,0.0,64,0.00,,SKC,0.00,VWS V14.00,2013-09-21 01:41:00,
2013-09-20 21:46:00,71.6,58.8,17.72,SSW,198,0.0,0.0,64,0.00,,SKC,0.00,VWS V14.00,2013-09-21 01:46:00,
2013-09-20 21:51:00,71.6,58.8,17.72,SSW,198,0.0,0.0,64,0.00,,SKC,0.00,VWS V14.00,2013-09-21 01:51:00,
2013-09-20 21:56:00,71.4,59.0,17.72,SSW,198,0.0,0.0,65,0.00,,SKC,0.00,VWS V14.00,2013-09-21 01:56:00,
2013-09-20 22:01:00,71.2,58.9,17.72,SSW,198,0.0,0.0,65,0.00,,SKC,0.00,VWS V14.00,2013-09-21 02:01:00,
2013-09-20 22:06:00,71.1,59.1,17.72,SSW,197,0.0,0.0,66,0.00,,SKC,0.00,VWS V14.00,2013-09-21 02:06:00,
2013-09-20 22:11:00,70.9,59.0,17.72,SSW,198,0.0,0.0,66,0.00,,SKC,0.00,VWS V14.00,2013-09-21 02:11:00,
2013-09-20 22:16:00,70.9,59.0,17.72,SSW,198,0.0,0.0,66,0.00,,SKC,0.00,VWS V14.00,2013-09-21 02:16:00,
2013-09-20 22:21:00,70.7,58.8,17.72,SSW,197,0.0,0.0,66,0.00,,SKC,0.00,VWS V14.00,2013-09-21 02:21:00,
2013-09-20 22:26:00,70.5,59.0,17.72,SSW,198,0.0,0.0,67,0.00,,SKC,0.00,VWS V14.00,2013-09-21 02:26:00,
2013-09-20 22:31:00,70.5,59.0,17.72,SSW,197,0.0,0.0,67,0.00,,SKC,0.00,VWS V14.00,2013-09-21 02:31:00,
2013-09-20 22:36:00,70.3,58.9,17.72,SSW,198,0.0,0.0,67,0.00,,SKC,0.00,VWS V14.00,2013-09-21 02:36:00,
2013-09-20 22:47:00,70.2,58.7,17.72,SSW,198,0.0,0.0,67,0.00,,SKC,0.00,VWS V14.00,2013-09-21 02:47:00,
2013-09-20 22:52:00,70.2,58.7,17.72,SSW,198,0.0,0.0,67,0.00,,SKC,0.00,VWS V14.00,2013-09-21 02:52:00,
2013-09-20 22:57:00,70.0,58.5,17.72,SSW,198,0.0,0.0,67,0.00,,SKC,0.00,VWS V14.00,2013-09-21 02:57:00,
2013-09-20 23:02:00,69.8,58.8,17.72,SSW,198,0.0,0.0,68,0.00,,SKC,0.00,VWS V14.00,2013-09-21 03:02:00,
2013-09-20 23:07:00,69.6,58.6,17.72,SSW,198,0.0,0.0,68,0.00,,SKC,0.00,VWS V14.00,2013-09-21 03:07:00,
2013-09-20 23:12:00,69.6,59.0,17.72,SSW,198,0.0,0.0,69,0.00,,SKC,0.00,VWS V14.00,2013-09-21 03:12:00,
2013-09-20 23:17:00,69.4,58.8,17.72,SSW,197,0.0,0.0,69,0.00,,SKC,0.00,VWS V14.00,2013-09-21 03:17:00,
2013-09-20 23:22:00,69.4,58.8,17.72,SSW,198,0.0,0.0,69,0.00,,SKC,0.00,VWS V14.00,2013-09-21 03:22:00,
2013-09-20 23:27:00,69.3,58.7,17.72,SSW,198,0.0,0.0,69,0.00,,SKC,0.00,VWS V14.00,2013-09-21 03:27:00,
2013-09-20 23:32:00,69.3,58.7,17.72,SSW,198,0.0,0.0,69,0.00,,SKC,0.00,VWS V14.00,2013-09-21 03:32:00,
2013-09-20 23:37:00,69.3,58.7,17.72,SSW,198,0.0,0.0,69,0.00,,SKC,0.00,VWS V14.00,2013-09-21 03:37:00,
2013-09-20 23:42:00,69.1,58.9,17.72,SSW,198,0.0,0.0,70,0.00,,SKC,0.00,VWS V14.00,2013-09-21 03:42:00,
2013-09-20 23:47:00,69.1,58.9,17.72,SSW,197,0.0,0.0,70,0.00,,SKC,0.00,VWS V14.00,2013-09-21 03:47:00,
2013-09-20 23:52:00,69.1,58.9,17.72,SSW,198,0.0,0.0,70,0.00,,SKC,0.00,VWS V14.00,2013-09-21 03:52:00,
2013-09-20 23:57:00,69.1,58.9,17.72,SSW,197,0.0,0.0,70,0.00,,SKC,0.00,VWS V14.00,2013-09-21 03:57:00,